Regional Weather Roundup
Issued by NWS

Home | Current Version | Previous Version | Text Only | Print | Product List | Glossary Off
Versions: 1 2 3 4 5 6 7 8 9 10 11 12 13 14 15 16 17 18 19 20 21 22 23 24 25 26 27 28 29 30 31 32 33 34 35 36 37 38 39 40 41 42 43 44 45 46 47 48 49 50

000
ASUS45 KSLC 020510
RWRUT

UTAH REGIONAL WEATHER ROUNDUP
NATIONAL WEATHER SERVICE SALT LAKE CITY UT
1100 PM MDT MON SEP 01 2014

UTZ001>011-023>025-020600-

NORTHERN UTAH

CITY           SKY/WX    TMP DP  RH WIND       PRES   REMARKS
HILL AFB       CLEAR     62  35  36 E15       30.08F
LOGAN          CLEAR     57  45  64 S5        30.07S
OGDEN          CLEAR     62  36  37 S10       30.05F
PROVO AIRPORT  CLEAR     57  46  67 SE3       30.09R
SALT LAKE CITY CLEAR     66  33  29 SE9       30.05S
VERNAL         CLEAR     57  44  62 W7        30.10R
WENDOVER       CLEAR     70  34  26 W5        30.03F
HEBER CITY     CLEAR     52  37  58 E3        30.15S
WEST JORDAN    CLEAR     64  43  45 CALM      30.08F

$$

UTZ012>022-026-027-020600-

SOUTHERN UTAH

CITY           SKY/WX    TMP DP  RH WIND       PRES   REMARKS
BRYCE CANYON   CLEAR     50  37  61 N3        30.27R
CEDAR CITY     CLEAR     66  36  32 SW5       30.10R
MILFORD        CLEAR     65  36  34 CALM      30.05R
MOAB/CYNLANDS  CLEAR     65  36  34 CALM      30.01R
PRICE          CLEAR     62  34  35 N3        30.13S
ST GEORGE      CLEAR     82  39  21 SE7       29.89R

$$

REGIONAL REPORTS     COLORADO/ARIZONA

CITY           SKY/WX    TMP DP  RH WIND       PRES   REMARKS
CRAIG, CO      CLEAR     48  41  76 W3        30.19R
GRAND JUNCTION CLEAR     67  37  33 E5        30.04R
RIFLE          CLEAR     60  39  45 SE12      30.13R
MONTROSE       CLEAR     62  40  44 SE10      30.16R
CORTEZ         CLEAR     59  38  45 E7        30.14R
PAGE, AZ       CLEAR     86  33  15 SW6       29.97S
GRAND CANYON     N/A    N/A N/A N/A MISG        N/A
KINGMAN        CLEAR     76  38  25 S10       29.95S
FLAGSTAFF      CLEAR     55  43  63 CALM      30.26S

$$

REGIONAL REPORTS    NEVADA/IDAHO/WYOMING

CITY           SKY/WX    TMP DP  RH WIND       PRES   REMARKS
LAS VEGAS, NV  CLEAR     94  35  12 S15       29.77R
ELY            CLEAR     61  32  33 VRB3      30.12R
ELKO           CLEAR     61  28  28 NE6       30.06R
POCATELLO, ID  CLEAR     56  36  47 CALM      30.07S
BURLEY         CLEAR     53  44  71 S9        30.05S
EVANSTON, WY   CLEAR     54  30  40 W6        30.24S
ROCK SPRINGS   CLEAR     53  30  41 W7        30.21R

$$



USA.gov is the U.S. government's official web portal to all federal, state and local government web resources and services.